User: anonymous   Login
Location: Unspecified
(0.0000°N, 0.0000°E)
Time: 00:10:12
(UTC+00:00)
Language:

STARLINK-36261 - Orbit

View from above orbital plane
View from above orbital plane
View from above satellite
View from above satellite

Ground track
Ground track

The orbit is defined by the following mean orbital elements,

1 67105U          26145.24454948 +.00000000 +00000-0 +88183-3 0 00001
2 67105  43.0014  96.7158 0001625 257.2986 102.7684 15.27589896    00
Epoch (UTC): 25 May 2026 05:52:09
Eccentricity: 0.0001625
inclination: 43.0014°
perigee height: 482 km
apogee height: 484 km
right ascension of ascending node: 96.7158°
argument of perigee: 257.2986°
revolutions per day: 15.27589896
mean anomaly at epoch: 102.7684°

The dashed part of the orbit path shows where the satellite is in the earth's shadow,  

DLR